This demonstration page uses our WeatherBlox Daily Observations layout. Learn more.

Left ArrowRight Arrow

44.89941, -97.11507

Hourly Observations for May 19, 2022

Temp ( °F °C ) Dew Point ( °F °C ) Humidity (%) Winds ( mph kmh ) Pressure ( in mb ) Visibility ( mi km ) Precip ( " mm )
12:53 am 00:53 Clear 53 11.7 47 8.3 80 80 Calm 29.71 1006 10 16 0.00 0.00
1:53 am 01:53 Clear 50 10 47 8.3 89 89 Calm 29.68 1005 10 16 0.00 0.00
2:53 am 02:53 Clear 50 10 47 8.3 89 89 Calm 29.68 1005 10 16 0.00 0.00
3:53 am 03:53 Clear 52 11.1 45 7.2 77 77 SE 5 7 29.66 1004 10 16 0.00 0.00
4:53 am 04:53 Clear 53 11.7 46 7.8 77 77 E 5 7 29.64 1004 10 16 0.00 0.00
5:53 am 05:53 Mostly Clear 53 11.7 46 7.8 77 77 ESE 6 9 29.61 1003 10 16 0.00 0.00
6:53 am 06:53 Sunny 54 12.2 46 7.8 75 75 E 8 13 29.57 1001 10 16 0.00 0.00
7:53 am 07:53 Sunny 55 12.8 46 7.8 72 72 ESE 9 15 29.53 1000 10 16 0.00 0.00
8:53 am 08:53 Partly Cloudy 57 13.9 45 7.2 64 64 E 9 15 29.52 1000 10 16 0.00 0.00
9:53 am 09:53 Mostly Cloudy 59 15 47 8.3 64 64 ESE 9 15 29.49 999 10 16 0.00 0.00
10:53 am 10:53 Cloudy 61 16.1 47 8.3 60 60 E 9 15 29.44 997 10 16 0.00 0.00
11:53 am 11:53 Mostly Cloudy 62 16.7 49 9.4 62 62 E 13 20 29.38 995 10 16 0.00 0.00
12:53 pm 12:53 Sunny 67 19.4 50 10 55 55 E 10 17 29.33 993 10 16 0.00 0.00
1:53 pm 13:53 Sunny 68 20 51 10.6 55 55 SE 15 24 29.29 992 10 16 0.00 0.00
2:53 pm 14:53 Sunny 70 21.1 54 12.2 57 57 ESE 13 20 29.26 991 10 16 0.00 0.00
3:53 pm 15:53 Sunny 71 21.7 55 12.8 57 57 E 12 19 29.25 990 10 16 0.00 0.00
4:53 pm 16:53 Sunny 70 21.1 56 13.3 61 61 ENE 12 19 29.21 989 10 16 0.00 0.00
5:53 pm 17:53 Sunny 70 21.1 57 13.9 64 64 NE 12 19 29.23 990 10 16 0.00 0.00
6:53 pm 18:53 Partly Cloudy 67 19.4 54 12.2 63 63 NNW 17 28 29.26 991 10 16 0.00 0.00
7:41 pm 19:41 Mostly Cloudy 54 12.2 46 7.8 75 75 NNW 22 35 29.34 993 10 16 0.00 0.00
7:53 pm 19:53 Cloudy with Light Rain 52 11.1 47 8.3 83 83 NW 25 41 29.37 995 10 16 0.00 0.00
8:40 pm 20:40 Cloudy with Light Rain 50 10 47 8.3 89 89 NNW 23 37 29.39 995 10 16 0.04 1.02
8:53 pm 20:53 Cloudy with Light Rain 50 10 47 8.3 89 89 NNW 20 31 29.40 996 9 14 0.06 1.52
9:53 pm 21:53 Cloudy with Light Rain 50 10 48 8.9 93 93 NW 12 19 29.42 996 8 13 0.06 1.52
10:53 pm 22:53 Cloudy 49 9.4 46 7.8 90 90 WNW 15 24 29.45 997 10 16 0.05 1.27
11:53 pm 23:53 Cloudy 48 8.9 45 7.2 89 89 W 8 13 29.42 996 10 16 0.00 0.00

Powered by AerisWeather